Scott Municipal (SCX)

 

Airport Diagram
No Airport Diagram Available
Current Weather/Forecast (IFR Conditions)
METAR KSCX 280535Z AUTO 35009G15KT 6SM BR OVC008 M01/M02 A3023 RMK A01
TAF

Airport Information

All Charts
General
Chart Name View
TAKEOFF MINIMUMS
TAKEOFF MINIMUMS

Approaches
Chart Name Download
RNAV (GPS) RWY 05
RNAV (GPS) RWY 23
VOR/DME-A
RNAV (GPS) RWY 05
RNAV (GPS) RWY 23
VOR/DME-A


Airport Statistics
Departures Arrivals Local
All Collected Stats since June 2016: 7 5 0
2021 Stats: 1 1 0
January Stats: 1 1 0

Inbound Traffic (Arrivals) - 0

No inbound traffic.


Outbound Traffic (Departures) - 0

No outbound traffic.


Local Traffic (Pattern) - 0

No local traffic.